This is the latest recevied weather packets stored in our database for station/object KG7MRB. If no packets are shown the sender has not sent any weather packets the latest 10 day(s).
| Time | Temp. | Humidity | Pressure | Rain* | Wind** | Luminosity | Snow |
|---|---|---|---|---|---|---|---|
| 1778022845 | 21.11° C | 66% | 1032.4 hPa | 0 mm | - | 480 W/m² | - |
| 1778022543 | 21.11° C | 68% | 1032.4 hPa | 0 mm | - | 492 W/m² | - |
| 1778022241 | 20.56° C | 67% | 1032.4 hPa | 0 mm | - | 500 W/m² | - |
| 1778021937 | 21.11° C | 67% | 1032.5 hPa | 0 mm | - | 511 W/m² | - |
| 1778021634 | 21.11° C | 66% | 1032.4 hPa | 0 mm | - | 522 W/m² | - |
| 1778021329 | 21.67° C | 65% | 1032.5 hPa | 0 mm | - | 531 W/m² | - |
| 1778021027 | 21.67° C | 64% | 1032.5 hPa | 0 mm | - | 540 W/m² | - |
| 1778020724 | 21.67° C | 66% | 1032.4 hPa | 0 mm | - | 551 W/m² | - |
| 1778020421 | 21.67° C | 64% | 1032.6 hPa | 0 mm | - | 558 W/m² | - |
| 1778020117 | 21.11° C | 65% | 1032.6 hPa | 0 mm | - | 569 W/m² | - |
| 1778019813 | 21.67° C | 66% | 1032.7 hPa | 0 mm | - | 575 W/m² | - |
| 1778019510 | 21.11° C | 68% | 1032.6 hPa | 0 mm | - | 585 W/m² | - |
| 1778019207 | 21.11° C | 66% | 1032.7 hPa | 0 mm | - | 594 W/m² | - |
| 1778018904 | 20.56° C | 67% | 1032.9 hPa | 0 mm | - | 601 W/m² | - |
| 1778018601 | 21.11° C | 66% | 1032.8 hPa | 0 mm | - | 609 W/m² | - |
| 1778018299 | 21.11° C | 66% | 1032.9 hPa | 0 mm | - | 613 W/m² | - |
| 1778017997 | 21.11° C | 67% | 1032.6 hPa | 0 mm | - | 624 W/m² | - |
| 1778017695 | 20.56° C | 67% | 1033 hPa | 0 mm | - | 630 W/m² | - |
| 1778017392 | 20.56° C | 68% | 1033 hPa | 0 mm | - | 639 W/m² | - |
| 1778017089 | 21.11° C | 68% | 1032.9 hPa | 0 mm | - | 646 W/m² | - |
| 1778016787 | 21.67° C | 68% | 1032.8 hPa | 0 mm | - | 649 W/m² | - |
| 1778016482 | 21.11° C | 67% | 1032.8 hPa | 0 mm | - | 649 W/m² | - |
| 1778016180 | 20.56° C | 68% | 1032.7 hPa | 0 mm | - | 658 W/m² | - |
| 1778015876 | 21.11° C | 66% | 1032.7 hPa | 0 mm | - | 660 W/m² | - |
| 1778015574 | 20.56° C | 67% | 1033 hPa | 0 mm | - | 667 W/m² | - |
* Rain latest hour (hover to see other rain measurements)
** Current wind speed in m/s (hover to see current wind gust speed)